www.pogodaiklimat.ru

Погода и климат >> Архив погоды >> Россия >> Мурманская область >> Апатиты


ПОГОДА в Апатитах

  • Прогноз погоды в Апатитах
  • Монитор погоды в Апатитах

АРХИВ ПОГОДЫ в Апатитах

Время (UTC), дата Ветер
(напр.,м/с)
 
Видим.   Явления Облачность Т
(С)
Тd
(С)
f
(%)
Тe
(С)
Тes
(С)
Комфортность P
(гПа)
Po
(гПа)
Тmin
(С)
Tmax
(С)
R
(мм)
R24
(мм)
S
(см)
00 17.01 штиль 0 4000 м слаб. ливневой снег 10/5 300 м
[Cb cap Ac trans Ci fib]
-11.4 -12.5 92 -12 -12 991.2 974.1
06 17.01 штиль 0 4000 м слаб. ливневой снег 9/4 300 м
[Cb cap Ac As]
-10.8 -11.8 92 -11 -11 989.5 972.4 -11.5 0.3 49
12 17.01 С 2 10 км слаб. ливневой снег 9/4 300 м
[Cb cap Ac trans]
-10.4 -11.4 92 -15 -15 989.7 972.6
18 17.01 С 1 4000 м слаб. ливневой снег 10/8 300 м
[Cb cap Ac As]
-12.9 -14.2 90 -15 -15 990.2 973.0 -9.8 0.7
00 18.01 С 1 4000 м слаб. ливневой снег 9/4 300 м
[Cb cap Ac trans]
-17.1 -18.7 87 -20 -20 991.6 974.1
06 18.01 штиль 0 20 км {ливн. осадки} 9/3 300 м
[Cb cap Ac trans]
-12.5 -13.7 91 -13 -13 993.2 975.9 -18.0 0.2 51
12 18.01 С 1 20 км 10/3 600 м
[Sc Ac trans Ci fib]
-11.5 -12.4 93 -14 -14 996.1 978.8
18 18.01 В 1 20 км 6/1 600 м
[Sc Cs]
-21.7 -23.8 83 -25 -25 999.5 981.5 -10.5
00 19.01 СЗ 1 20 км в посл. час ливневой снег 9/5 600 м
[Cb cap Ac As]
-20.4 -22.5 83 -23 -23 1001.4 983.5
06 19.01 штиль 0 20 км 5/3 600 м
[Sc Ac trans Ci fib]
-29.7 -32.7 75 -30 -30 1003.0 984.3 -29.9 0.0 50
12 19.01 С 1 20 км 10/3 600 м
[Sc Ac trans Ci fib]
-24.6 -27.1 80 -28 -28 1003.7 985.4
18 19.01 С 2 20 км 9/3 600 м
[Sc Cs]
-26.3 -28.9 79 -33 -33 опасность
обморожения
1004.3 985.9 -23.7
00 20.01 С 2 4000 м дымка 10/3 600 м
[Sc Ac trans Cs]
-26.2 -28.9 78 -33 -33 опасность
обморожения
1005.6 987.2
06 20.01 С 1 10 км ледяные иглы 3/1 600 м
[Sc Ac trans Ci fib]
-26.5 -29.2 78 -30 -30 1006.8 988.3 -27.2 50
12 20.01 СЗ 1 50 км 9/4 600 м
[Sc Ac trans]
-24.9 -27.3 80 -28 -28 1008.0 989.6
18 20.01 штиль 0 20 км 9/4 600 м
[Sc Ac As]
-20.6 -22.6 84 -21 -21 1008.7 990.6 -20.6
00 21.01 В 1 20 км 9/1 600 м
[Sc Ac trans Cs]
-26.3 -29.0 78 -30 -30 1009.3 990.8
06 21.01 В 1 20 км 1/1 600 м
[Sc]
-29.7 -32.7 75 -34 -34 опасность
обморожения
1008.9 990.1 -30.1 49
12 21.01 СВ 1 50 км 1/0
[Ac trans]
-28.9 -31.9 75 -33 -33 опасность
обморожения
1008.2 989.5
18 21.01 ЮЗ 1 10 км ледяные иглы 9/1 600 м
[Sc Ac trans Ci fib]
-26.3 -28.8 79 -30 -30 1005.6 987.2 -24.4
00 22.01 штиль 0 10 км ледяные иглы 9/3 600 м
[Sc Ac trans Ci fib]
-23.5 -26.0 80 -24 -24 1005.7 987.5
06 22.01 В 1 20 км {снег} 9/4 600 м
[Sc Ac As Ci fib]
-23.9 -26.3 80 -27 -27 1006.5 988.2 -28.6 0.0 49
12 22.01 В 1 1000 м снег 10/10 300 м
[Frnb Ns]
-13.1 -14.5 89 -15 -15 1003.3 985.8
18 22.01 штиль 0 4000 м слаб. снег 10/10 300 м
[Frnb Ns]
-11.3 -12.5 91 -11 -11 1001.8 984.5 -11.1 5
00 23.01 С 2 10 км слаб. снег 10/6 300 м
[Frnb As op]
-13.5 -14.8 90 -18 -18 1004.2 986.7
06 23.01 С 1 20 км {снег} 3/1 600 м
[Sc Ac trans]
-22.2 -24.2 84 -25 -25 1007.8 989.7 -22.4 2 55
12 23.01 З 3 20 км 9/3 600 м
[Sc Ac trans Ci fib]
-12.5 -13.8 90 -19 -19 1008.3 990.7
18 23.01 С 2 4000 м слаб. ливневой снег 9/4 600 м
[Cb cap Ac As Ci fib]
-17.7 -19.4 87 -23 -23 1023.7 994.7 -15.3 0.0

 

Местоположение метеостанции Апатиты (Мурманская область, Россия): широта 67.55 долгота 33.35 высота над уровнем моря 134 м.

В архиве по умолчанию представлена погода в Апатитах за последнюю неделю. Архивные данные за месяц целиком и за предыдущие месяцы, начиная с января 2011 года, Вы можете получить, выбрав интересующий диапазон дат из раскрывающегося списка и нажав кнопку "Ввод!".


*Определитесь, кто Вы:
робот инопланетянин человек

Внимание! Время в таблицах - всемирное. Для получения местного времени необходимо прибавить поправку, которая равна 3 ч.

Смотрите также архив погоды в соседних городах и на ближайших метеорологических станциях:

Погода в Кировске (Мурманская область, Россия) (16 км)
Погода в Зашейке (Мурманская область, Россия) (38 км)
Погода в Умбозере (Мурманская область, Россия) (41 км)
Погода в Мончегорске (Мурманская область, Россия) (46 км)
Погода в Порту Кандалакша (Мурманская область, Россия) (61 км)
Погода в Кандалакше (Мурманская область, Россия) (62 км)
Погода в Порту Витино (Мурманская область, Россия) (68 км)
Погода в Ловозере (Мурманская область, Россия) (87 км)
Погода в Пулозере (Мурманская область, Россия) (89 км)
Погода в Ковде (Мурманская область, Россия) (97 км)

Пояснения к столбцам:

Ветер - указаны скорость ветра в м/с - средняя за 10 мин, порывы в срок и между сроками (в фигурных скобках) и направление, откуда дует ветер: С - северный, СВ - северо-восточный, В - восточный, ЮВ - юго-восточный, Ю - южный, ЮЗ - юго-западный, З - западный, СЗ - северо-западный.
Видимость - горизонтальная дальность видимости в метрах или километрах. При видимости от 1 до 10 км при отсутствии осадков обычно наблюдается дымка, при ухудшении видимости до 1 км и менее - туман. В сухую погоду видимость может ухудшаться дымом, пылью или мглою.
Явления - указаны атмосферные явления, наблюдавшиеся в срок или в последний час перед сроком; фигурными скобками обозначены явления, наблюдавшиеся между сроками (за 1-3 часа до срока); квадратными скобками обозначены град или гололедные отложения с указанием их диаметра в мм.
Облачность - указаны через наклонную черту общая и нижняя облачность в баллах и высота нижней границы облаков в метрах; квадратными скобками обозначены формы облаков: Ci - перистые, Cs - перисто-слоистые, Cc - перисто-кучевые, Ac - высококучевые, As - высокослоистые, Sc - слоисто-кучевые, Ns - слоисто-дождевые, Cu - кучевые, Cb - кучево-дождевые. Подробнее классификацию облаков см. в Атласе облаков (PDF).
T - Температура воздуха - температура, измеренная на высоте 2 м над землей.
Td - Температура точки росы - температура, при понижении до которой содержащийся в воздухе водяной пар достигнет насыщения.
f - Относительная влажность воздуха - влажноcть воздуха, измеренная на высоте 2 м над землей.
Te - Эффективная температура - температура, которую ощущает одетый по сезону человек в тени. Характеристика душности погоды. При расчете учитывается влияние влажности воздуха и скорости ветра на теплоощущения человека.
Tes - Эффективная температура на солнце - температура, которую ощущает человек, с поправкой на солнечный нагрев. Характеристика знойности погоды. Зависит от высоты солнца над горизонтом, облачности и скорости ветра. Ночью, в пасмурную погоду, а также при ветре 12 м/с и более поправка равна нулю.
P - Атмосферное давление - приведенное к уровню моря атмосферное давление.
Po - Атмосферное давление - измеренное на уровне метеостанции атмосферное давление.
Tmin - Минимальная температура - минимум температуры воздуха на высоте 2 м над землей.
Tmax - Максимальная температура - максимум температуры воздуха на высоте 2 м над землей.
R - Количество осадков - Количество выпавших осадков за период времени, мм. При наведении курсора мыши на число - период времени, за который выпало указанное количество осадков.
R24 - Количество осадков - Количество выпавших осадков за 24 часа, мм.
S - Снежный покров - Высота снежного покрова, см. При наведении курсора мыши на число - состояние снежного покрова и степень покрытия местности в баллах.